Time,TemperatureF,DewpointF,PressureIn,WindDirection,WindDirectionDegrees,WindSpeedMPH,WindSpeedGustMPH,Humidity,HourlyPrecipIn,Conditions,Clouds,dailyrainin,SoftwareType,DateUTC
2013-08-14 00:01:00,76.5,68.4,29.86,SSW,203,0.0,0.8,76,0.00,,,0.00,WUHU216HW,2013-08-14 04:01:00,
2013-08-14 00:06:00,76.3,68.2,29.86,SSW,203,0.4,1.8,76,0.00,,,0.00,WUHU216HW,2013-08-14 04:06:00,
2013-08-14 00:11:00,75.8,67.7,29.86,SSW,203,0.0,2.2,76,0.00,,,0.00,WUHU216HW,2013-08-14 04:11:00,
2013-08-14 00:16:00,75.2,68.0,29.86,SSW,203,2.6,2.6,78,0.00,,,0.00,WUHU216HW,2013-08-14 04:16:00,
2013-08-14 00:21:00,75.8,68.0,29.86,SSW,203,0.8,2.6,77,0.00,,,0.00,WUHU216HW,2013-08-14 04:21:00,
2013-08-14 00:26:00,76.1,68.1,29.86,SSW,203,0.0,0.8,76,0.00,,,0.00,WUHU216HW,2013-08-14 04:26:00,
2013-08-14 00:31:00,76.0,67.9,29.86,SSW,203,0.4,0.8,76,0.00,,,0.00,WUHU216HW,2013-08-14 04:31:00,
2013-08-14 00:36:00,75.4,67.3,29.86,SSW,203,0.8,1.4,76,0.00,,,0.00,WUHU216HW,2013-08-14 04:36:00,
2013-08-14 00:41:00,75.2,67.6,29.86,SSW,203,0.8,1.4,77,0.00,,,0.00,WUHU216HW,2013-08-14 04:41:00,
2013-08-14 00:46:00,75.6,68.0,29.86,SSW,203,0.0,0.8,77,0.00,,,0.00,WUHU216HW,2013-08-14 04:46:00,
2013-08-14 00:51:00,75.6,68.0,29.86,SSW,203,0.8,0.8,77,0.00,,,0.00,WUHU216HW,2013-08-14 04:51:00,
2013-08-14 00:56:00,75.2,67.6,29.86,SSW,203,0.4,0.8,77,0.00,,,0.00,WUHU216HW,2013-08-14 04:56:00,
2013-08-14 01:01:00,74.9,67.2,29.86,SSW,203,0.4,0.8,77,0.00,,,0.00,WUHU216HW,2013-08-14 05:01:00,
2013-08-14 01:06:00,75.1,67.8,29.86,SSW,203,0.0,0.8,78,0.00,,,0.00,WUHU216HW,2013-08-14 05:06:00,
2013-08-14 01:11:00,75.6,68.3,29.86,SSW,203,0.0,0.8,78,0.00,,,0.00,WUHU216HW,2013-08-14 05:11:00,
2013-08-14 01:16:00,75.4,67.8,29.85,SSW,203,0.0,0.4,77,0.00,,,0.00,WUHU216HW,2013-08-14 05:16:00,
2013-08-14 01:21:00,75.2,67.6,29.86,SSW,203,0.0,0.0,77,0.00,,,0.00,WUHU216HW,2013-08-14 05:21:00,
2013-08-14 01:26:00,75.2,68.0,29.86,SSW,203,0.0,0.0,78,0.00,,,0.00,WUHU216HW,2013-08-14 05:26:00,
2013-08-14 01:31:00,75.8,68.5,29.86,SSW,203,0.0,0.0,78,0.00,,,0.00,WUHU216HW,2013-08-14 05:31:00,
2013-08-14 01:36:00,75.8,68.0,29.86,SSW,203,0.0,0.0,77,0.00,,,0.00,WUHU216HW,2013-08-14 05:36:00,
2013-08-14 01:41:00,75.6,67.5,29.86,SSW,203,0.0,0.0,76,0.00,,,0.00,WUHU216HW,2013-08-14 05:41:00,
2013-08-14 01:46:00,75.2,67.1,29.86,SSW,203,0.0,0.0,76,0.00,,,0.00,WUHU216HW,2013-08-14 05:46:00,
2013-08-14 01:51:00,75.1,67.4,29.86,SSW,203,0.8,1.4,77,0.00,,,0.00,WUHU216HW,2013-08-14 05:51:00,
2013-08-14 01:56:00,75.2,68.0,29.87,SSW,203,0.4,1.4,78,0.00,,,0.00,WUHU216HW,2013-08-14 05:56:00,
2013-08-14 02:01:00,75.2,67.6,29.86,SSW,203,0.0,0.8,77,0.00,,,0.00,WUHU216HW,2013-08-14 06:01:00,
2013-08-14 02:06:00,74.9,67.6,29.86,NW,315,1.8,1.8,78,0.00,,,0.00,WUHU216HW,2013-08-14 06:06:00,
2013-08-14 02:11:00,74.5,67.2,29.86,NW,315,0.8,1.8,78,0.00,,,0.00,WUHU216HW,2013-08-14 06:11:00,
2013-08-14 02:16:00,74.7,67.4,29.86,NW,315,0.8,1.4,78,0.00,,,0.00,WUHU216HW,2013-08-14 06:16:00,
2013-08-14 02:21:00,75.2,68.0,29.86,NW,315,0.8,1.4,78,0.00,,,0.00,WUHU216HW,2013-08-14 06:21:00,
2013-08-14 02:26:00,75.1,67.8,29.86,NW,315,0.8,1.4,78,0.00,,,0.00,WUHU216HW,2013-08-14 06:26:00,
2013-08-14 02:31:00,74.5,67.2,29.86,NW,315,1.4,1.4,78,0.00,,,0.00,WUHU216HW,2013-08-14 06:31:00,
2013-08-14 02:36:00,74.2,67.3,29.86,NW,315,1.4,1.4,79,0.00,,,0.00,WUHU216HW,2013-08-14 06:36:00,
2013-08-14 02:41:00,74.0,67.5,29.86,West,270,1.8,1.8,80,0.00,,,0.00,WUHU216HW,2013-08-14 06:41:00,
2013-08-14 02:46:00,74.7,67.9,29.86,WNW,293,0.8,1.8,79,0.00,,,0.00,WUHU216HW,2013-08-14 06:46:00,
2013-08-14 02:51:00,74.7,67.4,29.86,West,270,0.8,1.8,78,0.00,,,0.00,WUHU216HW,2013-08-14 06:51:00,
2013-08-14 02:56:00,74.5,67.2,29.86,WNW,293,1.4,2.2,78,0.00,,,0.00,WUHU216HW,2013-08-14 06:56:00,
2013-08-14 03:01:00,74.0,66.7,29.86,WNW,293,1.4,2.2,78,0.00,,,0.00,WUHU216HW,2013-08-14 07:01:00,
2013-08-14 03:06:00,74.3,67.5,29.86,NW,315,1.4,1.8,79,0.00,,,0.00,WUHU216HW,2013-08-14 07:06:00,
2013-08-14 03:11:00,75.1,67.8,29.86,NW,315,2.2,2.2,78,0.00,,,0.00,WUHU216HW,2013-08-14 07:11:00,
2013-08-14 03:16:00,74.5,67.2,29.86,NW,315,0.8,2.2,78,0.00,,,0.00,WUHU216HW,2013-08-14 07:16:00,
2013-08-14 03:21:00,74.0,66.7,29.86,NW,315,1.4,1.4,78,0.00,,,0.00,WUHU216HW,2013-08-14 07:21:00,
2013-08-14 03:26:00,73.8,66.6,29.86,NW,315,1.8,1.8,78,0.00,,,0.00,WUHU216HW,2013-08-14 07:26:00,
2013-08-14 03:31:00,73.4,66.6,29.86,NW,315,0.8,1.8,79,0.00,,,0.00,WUHU216HW,2013-08-14 07:31:00,
2013-08-14 03:36:00,74.3,67.5,29.86,NW,315,1.8,1.8,79,0.00,,,0.00,WUHU216HW,2013-08-14 07:36:00,
2013-08-14 03:41:00,74.0,66.7,29.86,NW,315,0.8,2.2,78,0.00,,,0.00,WUHU216HW,2013-08-14 07:41:00,
2013-08-14 03:46:00,73.4,66.6,29.86,NW,315,2.2,2.2,79,0.00,,,0.00,WUHU216HW,2013-08-14 07:46:00,
2013-08-14 03:51:00,73.1,66.6,29.86,NW,315,0.8,2.2,80,0.00,,,0.00,WUHU216HW,2013-08-14 07:51:00,
2013-08-14 03:56:00,73.6,66.8,29.86,NW,315,1.4,1.8,79,0.00,,,0.00,WUHU216HW,2013-08-14 07:56:00,
2013-08-14 04:01:00,74.2,66.9,29.86,NNW,338,1.8,2.2,78,0.00,,,0.00,WUHU216HW,2013-08-14 08:01:00,
2013-08-14 04:06:00,73.6,66.4,29.86,NW,315,1.4,2.2,78,0.00,,,0.00,WUHU216HW,2013-08-14 08:06:00,
2013-08-14 04:11:00,72.9,65.7,29.86,NW,315,1.4,2.2,78,0.00,,,0.00,WUHU216HW,2013-08-14 08:11:00,
2013-08-14 04:16:00,72.4,65.2,29.86,NW,315,2.2,2.2,78,0.00,,,0.00,WUHU216HW,2013-08-14 08:16:00,
2013-08-14 04:21:00,72.5,66.1,29.87,NW,315,0.8,2.2,80,0.00,,,0.00,WUHU216HW,2013-08-14 08:21:00,
2013-08-14 04:26:00,73.3,66.4,29.86,NNW,338,2.2,2.2,79,0.00,,,0.00,WUHU216HW,2013-08-14 08:26:00,
2013-08-14 04:31:00,73.3,66.1,29.86,NW,315,1.4,2.2,78,0.00,,,0.00,WUHU216HW,2013-08-14 08:31:00,
2013-08-14 04:36:00,72.9,65.7,29.87,NW,315,1.4,2.2,78,0.00,,,0.00,WUHU216HW,2013-08-14 08:36:00,
2013-08-14 04:41:00,72.4,65.2,29.87,NW,315,2.2,2.2,78,0.00,,,0.00,WUHU216HW,2013-08-14 08:41:00,
2013-08-14 04:46:00,72.0,65.2,29.87,NW,315,1.8,2.2,79,0.00,,,0.00,WUHU216HW,2013-08-14 08:46:00,
2013-08-14 04:51:00,72.7,65.9,29.87,NW,315,0.8,1.8,79,0.00,,,0.00,WUHU216HW,2013-08-14 08:51:00,
2013-08-14 04:56:00,73.1,65.9,29.87,NW,315,0.4,1.4,78,0.00,,,0.00,WUHU216HW,2013-08-14 08:56:00,
2013-08-14 05:01:00,72.9,65.7,29.87,NW,315,0.8,0.8,78,0.00,,,0.00,WUHU216HW,2013-08-14 09:01:00,
2013-08-14 05:06:00,72.4,64.7,29.87,NW,315,0.4,0.8,77,0.00,,,0.00,WUHU216HW,2013-08-14 09:06:00,
2013-08-14 05:11:00,72.2,64.5,29.88,NW,315,0.8,0.8,77,0.00,,,0.00,WUHU216HW,2013-08-14 09:11:00,
2013-08-14 05:16:00,71.8,64.2,29.88,NNW,338,0.0,0.8,77,0.00,,,0.00,WUHU216HW,2013-08-14 09:16:00,
2013-08-14 05:21:00,72.2,65.0,29.88,NNE,23,0.0,0.4,78,0.00,,,0.00,WUHU216HW,2013-08-14 09:21:00,
2013-08-14 05:26:00,72.7,65.5,29.89,NNE,23,0.0,0.8,78,0.00,,,0.00,WUHU216HW,2013-08-14 09:26:00,
2013-08-14 05:31:00,72.4,64.7,29.89,NNE,23,0.0,0.8,77,0.00,,,0.00,WUHU216HW,2013-08-14 09:31:00,
2013-08-14 05:36:00,72.2,64.2,29.89,NNE,23,0.0,0.0,76,0.00,,,0.00,WUHU216HW,2013-08-14 09:36:00,
2013-08-14 05:41:00,71.8,63.8,29.89,NNE,23,0.0,0.0,76,0.00,,,0.00,WUHU216HW,2013-08-14 09:41:00,
2013-08-14 05:46:00,71.8,64.2,29.89,NNE,23,0.0,0.0,77,0.00,,,0.00,WUHU216HW,2013-08-14 09:46:00,
2013-08-14 05:51:00,72.4,64.7,29.90,NNE,23,0.0,0.0,77,0.00,,,0.00,WUHU216HW,2013-08-14 09:51:00,
2013-08-14 05:56:00,72.2,64.2,29.90,NNE,23,0.0,0.0,76,0.00,,,0.00,WUHU216HW,2013-08-14 09:56:00,
2013-08-14 06:01:00,71.6,63.6,29.90,North,0,0.0,0.8,76,0.00,,,0.00,WUHU216HW,2013-08-14 10:01:00,
2013-08-14 06:06:00,71.1,63.5,29.90,North,0,0.8,1.4,77,0.00,,,0.00,WUHU216HW,2013-08-14 10:06:00,
2013-08-14 06:11:00,70.9,63.3,29.90,North,0,1.8,1.8,77,0.00,,,0.00,WUHU216HW,2013-08-14 10:11:00,
2013-08-14 06:16:00,70.6,63.4,29.91,North,0,0.4,1.8,78,0.00,,,0.00,WUHU216HW,2013-08-14 10:16:00,
2013-08-14 06:21:00,71.1,64.3,29.91,North,0,0.0,1.4,79,0.00,,,0.00,WUHU216HW,2013-08-14 10:21:00,
2013-08-14 06:26:00,71.6,64.5,29.91,North,0,0.8,1.4,78,0.00,,,0.00,WUHU216HW,2013-08-14 10:26:00,
2013-08-14 06:31:00,71.3,63.6,29.91,North,0,0.0,0.8,77,0.00,,,0.00,WUHU216HW,2013-08-14 10:31:00,
2013-08-14 06:36:00,70.9,63.7,29.92,North,0,0.8,0.8,78,0.00,,,0.00,WUHU216HW,2013-08-14 10:36:00,
2013-08-14 06:41:00,70.6,63.7,29.92,North,0,1.8,1.8,79,0.00,,,0.00,WUHU216HW,2013-08-14 10:41:00,
2013-08-14 06:46:00,70.2,63.4,29.92,North,0,1.8,1.8,79,0.00,,,0.00,WUHU216HW,2013-08-14 10:46:00,
2013-08-14 06:51:00,71.3,64.5,29.92,North,0,0.0,1.8,79,0.00,,,0.00,WUHU216HW,2013-08-14 10:51:00,
2013-08-14 06:56:00,71.6,64.5,29.92,North,0,0.8,0.8,78,0.00,,,0.00,WUHU216HW,2013-08-14 10:56:00,
2013-08-14 07:01:00,71.1,63.9,29.93,North,0,0.8,0.8,78,0.00,,,0.00,WUHU216HW,2013-08-14 11:01:00,
2013-08-14 07:06:00,70.7,63.6,29.93,North,0,1.8,1.8,78,0.00,,,0.00,WUHU216HW,2013-08-14 11:06:00,
2013-08-14 07:11:00,70.4,63.2,29.93,North,0,0.0,2.2,78,0.00,,,0.00,WUHU216HW,2013-08-14 11:11:00,
2013-08-14 07:16:00,70.2,63.4,29.94,North,0,2.2,2.2,79,0.00,,,0.00,WUHU216HW,2013-08-14 11:16:00,
2013-08-14 07:21:00,71.3,64.5,29.94,North,0,0.0,2.2,79,0.00,,,0.00,WUHU216HW,2013-08-14 11:21:00,
2013-08-14 07:26:00,71.6,64.0,29.94,NNW,338,2.2,2.2,77,0.00,,,0.00,WUHU216HW,2013-08-14 11:26:00,
2013-08-14 07:31:00,70.9,63.3,29.94,NNW,338,1.8,2.2,77,0.00,,,0.00,WUHU216HW,2013-08-14 11:31:00,
2013-08-14 07:36:00,70.6,62.9,29.94,NNW,338,0.8,1.8,77,0.00,,,0.00,WUHU216HW,2013-08-14 11:36:00,
2013-08-14 07:41:00,70.2,63.0,29.94,NNW,338,0.0,1.8,78,0.00,,,0.00,WUHU216HW,2013-08-14 11:41:00,
2013-08-14 07:46:00,70.6,63.4,29.94,NNW,338,1.8,1.8,78,0.00,,,0.00,WUHU216HW,2013-08-14 11:46:00,
2013-08-14 07:51:00,71.6,64.5,29.95,NNW,338,0.4,1.8,78,0.00,,,0.00,WUHU216HW,2013-08-14 11:51:00,
2013-08-14 07:56:00,71.3,63.6,29.95,NNW,338,2.2,2.2,77,0.00,,,0.00,WUHU216HW,2013-08-14 11:56:00,
2013-08-14 08:01:00,70.7,63.1,29.95,NNW,338,1.4,2.2,77,0.00,,,0.00,WUHU216HW,2013-08-14 12:01:00,
2013-08-14 08:06:00,70.4,62.7,29.95,NNW,338,0.4,1.4,77,0.00,,,0.00,WUHU216HW,2013-08-14 12:06:00,
2013-08-14 08:11:00,70.6,63.4,29.96,NNW,338,0.8,1.4,78,0.00,,,0.00,WUHU216HW,2013-08-14 12:11:00,
2013-08-14 08:16:00,71.3,63.6,29.96,NNW,338,0.8,1.8,77,0.00,,,0.00,WUHU216HW,2013-08-14 12:16:00,
2013-08-14 08:21:00,71.3,63.6,29.96,NNW,338,0.0,1.8,77,0.00,,,0.00,WUHU216HW,2013-08-14 12:21:00,
2013-08-14 08:26:00,71.1,63.5,29.97,NNW,338,0.8,1.4,77,0.00,,,0.00,WUHU216HW,2013-08-14 12:26:00,
2013-08-14 08:31:00,70.7,63.1,29.96,NNW,338,0.4,0.8,77,0.00,,,0.00,WUHU216HW,2013-08-14 12:31:00,
2013-08-14 08:36:00,70.6,62.9,29.97,NNW,338,0.0,0.8,77,0.00,,,0.00,WUHU216HW,2013-08-14 12:36:00,
2013-08-14 08:41:00,70.7,63.1,29.97,NNE,23,0.0,0.8,77,0.00,,,0.00,WUHU216HW,2013-08-14 12:41:00,
2013-08-14 08:46:00,71.6,63.6,29.97,NNE,23,0.0,0.4,76,0.00,,,0.00,WUHU216HW,2013-08-14 12:46:00,
2013-08-14 08:51:00,72.2,64.2,29.98,North,0,0.0,0.4,76,0.00,,,0.00,WUHU216HW,2013-08-14 12:51:00,
2013-08-14 08:56:00,72.0,63.6,29.97,NE,45,0.0,0.4,75,0.00,,,0.00,WUHU216HW,2013-08-14 12:56:00,
2013-08-14 09:01:00,72.0,63.6,29.98,NNW,338,0.0,0.8,75,0.00,,,0.00,WUHU216HW,2013-08-14 13:01:00,
2013-08-14 09:06:00,71.8,63.8,29.98,WNW,293,0.4,0.8,76,0.00,,,0.00,WUHU216HW,2013-08-14 13:06:00,
2013-08-14 09:11:00,72.4,64.7,29.98,NW,315,0.0,0.8,77,0.00,,,0.00,WUHU216HW,2013-08-14 13:11:00,
2013-08-14 09:16:00,73.1,65.4,29.98,NNW,338,0.0,0.8,77,0.00,,,0.00,WUHU216HW,2013-08-14 13:16:00,
2013-08-14 09:21:00,73.1,65.1,29.98,NNW,338,0.0,0.8,76,0.00,,,0.00,WUHU216HW,2013-08-14 13:21:00,
2013-08-14 09:26:00,72.9,64.9,29.99,NNE,23,0.4,0.8,76,0.00,,,0.00,WUHU216HW,2013-08-14 13:26:00,
2013-08-14 09:31:00,72.5,64.9,29.98,NNW,338,0.0,0.8,77,0.00,,,0.00,WUHU216HW,2013-08-14 13:31:00,
2013-08-14 09:36:00,72.4,64.7,29.98,North,0,0.8,1.8,77,0.00,,,0.00,WUHU216HW,2013-08-14 13:36:00,
2013-08-14 09:41:00,72.2,64.2,29.99,North,0,0.4,1.8,76,0.00,,,0.00,WUHU216HW,2013-08-14 13:41:00,
2013-08-14 09:46:00,72.4,64.7,29.99,North,0,1.8,1.8,77,0.00,,,0.00,WUHU216HW,2013-08-14 13:46:00,
2013-08-14 09:51:00,73.3,65.6,29.99,NNW,338,0.0,1.8,77,0.00,,,0.00,WUHU216HW,2013-08-14 13:51:00,
2013-08-14 09:56:00,73.3,65.3,29.99,North,0,0.4,0.8,76,0.00,,,0.00,WUHU216HW,2013-08-14 13:56:00,
2013-08-14 10:01:00,73.1,64.7,29.99,WSW,248,0.4,0.8,75,0.00,,,0.00,WUHU216HW,2013-08-14 14:01:00,
2013-08-14 10:06:00,72.9,64.9,29.99,NNE,23,0.4,0.8,76,0.00,,,0.00,WUHU216HW,2013-08-14 14:06:00,
2013-08-14 10:11:00,72.9,64.5,29.99,NNW,338,0.8,1.4,75,0.00,,,0.00,WUHU216HW,2013-08-14 14:11:00,
2013-08-14 10:16:00,72.7,64.7,29.99,NW,315,0.0,1.8,76,0.00,,,0.00,WUHU216HW,2013-08-14 14:16:00,
2013-08-14 10:21:00,73.8,65.8,29.99,WNW,293,1.8,1.8,76,0.00,,,0.00,WUHU216HW,2013-08-14 14:21:00,
2013-08-14 10:26:00,74.5,66.1,30.00,SSW,203,2.2,2.2,75,0.00,,,0.00,WUHU216HW,2013-08-14 14:26:00,
2013-08-14 10:31:00,74.2,65.8,30.00,SSW,203,3.2,3.2,75,0.00,,,0.00,WUHU216HW,2013-08-14 14:31:00,
2013-08-14 10:36:00,73.8,65.1,30.00,SSW,203,0.8,3.2,74,0.00,,,0.00,WUHU216HW,2013-08-14 14:36:00,
2013-08-14 10:41:00,73.4,64.7,30.00,SSW,203,1.4,1.4,74,0.00,,,0.00,WUHU216HW,2013-08-14 14:41:00,
2013-08-14 10:46:00,73.1,64.7,30.00,SSW,203,0.8,1.8,75,0.00,,,0.00,WUHU216HW,2013-08-14 14:46:00,
2013-08-14 10:51:00,73.8,65.4,30.00,SSW,203,0.8,1.8,75,0.00,,,0.00,WUHU216HW,2013-08-14 14:51:00,
2013-08-14 10:56:00,74.5,66.1,30.00,SSW,203,0.0,0.8,75,0.00,,,0.00,WUHU216HW,2013-08-14 14:56:00,
2013-08-14 11:01:00,74.5,66.1,30.01,South,180,0.0,2.2,75,0.00,,,0.00,WUHU216HW,2013-08-14 15:01:00,
2013-08-14 11:06:00,74.3,65.5,30.01,SSW,203,0.8,2.2,74,0.00,,,0.00,WUHU216HW,2013-08-14 15:06:00,
2013-08-14 11:11:00,74.3,65.9,30.01,SSW,203,0.0,2.2,75,0.00,,,0.00,WUHU216HW,2013-08-14 15:11:00,
2013-08-14 11:16:00,74.2,65.8,30.01,SW,225,1.8,1.8,75,0.00,,,0.00,WUHU216HW,2013-08-14 15:16:00,
2013-08-14 11:21:00,74.2,65.8,30.01,SW,225,1.8,2.2,75,0.00,,,0.00,WUHU216HW,2013-08-14 15:21:00,
2013-08-14 11:26:00,74.9,66.4,30.01,SW,225,1.4,2.2,75,0.00,,,0.00,WUHU216HW,2013-08-14 15:26:00,
2013-08-14 11:31:00,75.2,66.4,30.01,SW,225,0.4,2.2,74,0.00,,,0.00,WUHU216HW,2013-08-14 15:31:00,
2013-08-14 11:36:00,75.1,66.3,30.01,SSW,203,0.8,2.2,74,0.00,,,0.00,WUHU216HW,2013-08-14 15:36:00,
2013-08-14 11:41:00,74.9,66.1,30.01,SSW,203,0.0,1.4,74,0.00,,,0.00,WUHU216HW,2013-08-14 15:41:00,
2013-08-14 11:46:00,74.7,65.9,30.01,SW,225,0.8,1.8,74,0.00,,,0.00,WUHU216HW,2013-08-14 15:46:00,
2013-08-14 11:51:00,74.5,66.1,30.01,SSW,203,0.4,1.8,75,0.00,,,0.00,WUHU216HW,2013-08-14 15:51:00,
2013-08-14 11:56:00,75.1,66.3,30.01,North,0,0.0,2.2,74,0.00,,,0.00,WUHU216HW,2013-08-14 15:56:00,
2013-08-14 12:01:00,75.2,66.0,30.01,NE,45,0.8,2.2,73,0.00,,,0.00,WUHU216HW,2013-08-14 16:01:00,
2013-08-14 12:06:00,74.9,65.6,30.01,SSW,203,0.4,1.4,73,0.00,,,0.00,WUHU216HW,2013-08-14 16:06:00,
2013-08-14 12:11:00,74.5,65.4,30.01,SW,225,0.0,1.4,73,0.00,,,0.00,WUHU216HW,2013-08-14 16:11:00,
2013-08-14 12:16:00,74.3,65.2,30.01,SSW,203,0.4,1.4,73,0.00,,,0.00,WUHU216HW,2013-08-14 16:16:00,
2013-08-14 12:22:00,74.2,65.0,30.02,West,270,0.8,1.4,73,0.00,,,0.00,WUHU216HW,2013-08-14 16:22:00,
2013-08-14 12:27:00,74.9,66.1,30.01,SW,225,0.4,1.8,74,0.00,,,0.00,WUHU216HW,2013-08-14 16:27:00,
2013-08-14 12:32:00,75.2,65.6,30.01,SW,225,0.8,1.8,72,0.00,,,0.00,WUHU216HW,2013-08-14 16:32:00,
2013-08-14 12:37:00,74.9,65.3,30.02,SW,225,0.8,2.2,72,0.00,,,0.00,WUHU216HW,2013-08-14 16:37:00,
2013-08-14 12:42:00,74.5,65.4,30.01,South,180,0.0,2.2,73,0.00,,,0.00,WUHU216HW,2013-08-14 16:42:00,
2013-08-14 12:47:00,74.3,65.2,30.02,SE,135,0.4,1.8,73,0.00,,,0.00,WUHU216HW,2013-08-14 16:47:00,
2013-08-14 12:52:00,74.3,65.2,30.02,ESE,113,0.4,3.2,73,0.00,,,0.00,WUHU216HW,2013-08-14 16:52:00,
2013-08-14 12:57:00,74.5,65.4,30.02,WNW,293,0.8,3.2,73,0.00,,,0.00,WUHU216HW,2013-08-14 16:57:00,
2013-08-14 13:02:00,75.6,66.3,30.02,NE,45,0.4,2.6,73,0.00,,,0.00,WUHU216HW,2013-08-14 17:02:00,
2013-08-14 13:07:00,75.6,66.0,30.01,NNE,23,0.0,1.8,72,0.00,,,0.00,WUHU216HW,2013-08-14 17:07:00,
2013-08-14 13:12:00,75.4,65.8,30.02,North,0,0.8,1.8,72,0.00,,,0.00,WUHU216HW,2013-08-14 17:12:00,
2013-08-14 13:17:00,75.1,65.4,30.02,WSW,248,0.4,0.8,72,0.00,,,0.00,WUHU216HW,2013-08-14 17:17:00,
2013-08-14 13:22:00,74.7,65.1,30.02,SSW,203,0.4,1.8,72,0.00,,,0.00,WUHU216HW,2013-08-14 17:22:00,
2013-08-14 13:27:00,75.4,65.3,30.01,NE,45,2.6,3.6,71,0.00,,,0.00,WUHU216HW,2013-08-14 17:27:00,
2013-08-14 13:32:00,75.8,65.7,30.02,NNE,23,0.8,3.6,71,0.00,,,0.00,WUHU216HW,2013-08-14 17:32:00,
2013-08-14 13:37:00,75.2,65.2,30.02,NE,45,0.4,4.0,71,0.00,,,0.00,WUHU216HW,2013-08-14 17:37:00,
2013-08-14 13:42:00,74.9,64.9,30.01,NNE,23,0.8,4.0,71,0.00,,,0.00,WUHU216HW,2013-08-14 17:42:00,
2013-08-14 13:48:00,74.5,64.5,30.01,North,0,0.8,1.4,71,0.00,,,0.00,WUHU216HW,2013-08-14 17:48:00,
2013-08-14 13:53:00,73.8,63.9,30.01,NE,45,0.4,1.4,71,0.00,,,0.00,WUHU216HW,2013-08-14 17:53:00,
2013-08-14 13:58:00,74.0,64.5,30.01,NNE,23,0.8,0.8,72,0.00,,,0.00,WUHU216HW,2013-08-14 17:58:00,
2013-08-14 14:03:00,74.9,64.4,30.01,SSE,158,0.8,1.4,70,0.00,,,0.00,WUHU216HW,2013-08-14 18:03:00,
2013-08-14 14:08:00,75.2,65.2,30.01,SSW,203,0.8,2.2,71,0.00,,,0.00,WUHU216HW,2013-08-14 18:08:00,
2013-08-14 14:14:00,75.4,65.0,30.01,SSE,158,0.8,1.8,70,0.00,,,0.00,WUHU216HW,2013-08-14 18:14:00,
2013-08-14 14:19:00,75.4,65.0,30.01,NE,45,2.2,3.6,70,0.00,,,0.00,WUHU216HW,2013-08-14 18:19:00,
2013-08-14 14:24:00,76.0,65.5,30.01,North,0,0.8,3.6,70,0.00,,,0.00,WUHU216HW,2013-08-14 18:24:00,
2013-08-14 14:29:00,76.7,65.3,30.01,NW,315,0.8,3.6,68,0.00,,,0.00,WUHU216HW,2013-08-14 18:29:00,
2013-08-14 14:34:00,76.5,65.2,30.01,SSW,203,2.2,2.2,68,0.00,,,0.00,WUHU216HW,2013-08-14 18:34:00,
2013-08-14 14:39:00,76.3,65.0,30.01,NNE,23,1.8,5.0,68,0.00,,,0.00,WUHU216HW,2013-08-14 18:39:00,
2013-08-14 14:44:00,76.0,64.6,30.02,North,0,0.0,5.0,68,0.00,,,0.00,WUHU216HW,2013-08-14 18:44:00,
2013-08-14 14:50:00,75.6,64.7,30.02,NNE,23,0.4,1.8,69,0.00,,,0.00,WUHU216HW,2013-08-14 18:50:00,
2013-08-14 14:55:00,75.6,64.3,30.02,South,180,0.8,0.8,68,0.00,,,0.00,WUHU216HW,2013-08-14 18:55:00,
2013-08-14 15:00:00,76.0,64.6,30.02,ENE,68,0.4,2.6,68,0.00,,,0.00,WUHU216HW,2013-08-14 19:00:00,
2013-08-14 15:05:00,75.6,64.3,30.02,East,90,0.0,2.6,68,0.00,,,0.00,WUHU216HW,2013-08-14 19:05:00,
2013-08-14 15:11:00,75.4,64.1,30.02,SSW,203,2.2,2.2,68,0.00,,,0.00,WUHU216HW,2013-08-14 19:11:00,
2013-08-14 15:16:00,75.2,63.6,30.01,NE,45,0.4,2.2,67,0.00,,,0.00,WUHU216HW,2013-08-14 19:16:00,
2013-08-14 15:22:00,75.6,64.7,30.01,WNW,293,0.0,1.4,69,0.00,,,0.00,WUHU216HW,2013-08-14 19:22:00,
2013-08-14 15:27:00,75.6,64.7,30.01,SSE,158,1.4,2.2,69,0.00,,,0.00,WUHU216HW,2013-08-14 19:27:00,
2013-08-14 15:32:00,75.4,64.5,30.01,SE,135,0.4,2.2,69,0.00,,,0.00,WUHU216HW,2013-08-14 19:32:00,
2013-08-14 15:37:00,75.1,63.8,30.02,SW,225,0.8,1.8,68,0.00,,,0.00,WUHU216HW,2013-08-14 19:37:00,
2013-08-14 15:42:00,74.7,63.5,30.02,NE,45,3.2,3.2,68,0.00,,,0.00,WUHU216HW,2013-08-14 19:42:00,
2013-08-14 15:47:00,74.5,63.7,30.02,South,180,0.8,3.2,69,0.00,,,0.00,WUHU216HW,2013-08-14 19:47:00,
2013-08-14 15:52:00,75.2,63.9,30.01,WNW,293,0.8,1.4,68,0.00,,,0.00,WUHU216HW,2013-08-14 19:52:00,
2013-08-14 15:57:00,75.4,64.5,30.01,SSE,158,0.8,1.4,69,0.00,,,0.00,WUHU216HW,2013-08-14 19:57:00,
2013-08-14 16:02:00,75.4,64.1,30.02,South,180,0.8,1.4,68,0.00,,,0.00,WUHU216HW,2013-08-14 20:02:00,
2013-08-14 16:07:00,75.1,63.8,30.02,SE,135,0.8,5.4,68,0.00,,,0.00,WUHU216HW,2013-08-14 20:07:00,
2013-08-14 16:12:00,74.9,63.6,30.02,SSE,158,0.8,5.4,68,0.00,,,0.00,WUHU216HW,2013-08-14 20:12:00,
2013-08-14 16:17:00,75.2,63.6,30.02,South,180,0.8,3.2,67,0.00,,,0.00,WUHU216HW,2013-08-14 20:17:00,
2013-08-14 16:23:00,75.6,64.3,30.02,South,180,0.8,2.2,68,0.00,,,0.00,WUHU216HW,2013-08-14 20:23:00,
2013-08-14 16:28:00,75.2,63.9,30.02,SE,135,1.4,1.4,68,0.00,,,0.00,WUHU216HW,2013-08-14 20:28:00,
2013-08-14 16:33:00,74.9,63.6,30.02,SE,135,0.0,1.4,68,0.00,,,0.00,WUHU216HW,2013-08-14 20:33:00,
2013-08-14 16:38:00,74.5,63.3,30.02,SE,135,0.8,1.4,68,0.00,,,0.00,WUHU216HW,2013-08-14 20:38:00,
2013-08-14 16:43:00,74.5,63.3,30.02,SE,135,0.0,1.4,68,0.00,,,0.00,WUHU216HW,2013-08-14 20:43:00,
2013-08-14 16:48:00,74.5,63.7,30.02,SSE,158,0.8,0.8,69,0.00,,,0.00,WUHU216HW,2013-08-14 20:48:00,
2013-08-14 16:53:00,75.2,64.4,30.02,SSE,158,0.4,0.8,69,0.00,,,0.00,WUHU216HW,2013-08-14 20:53:00,
2013-08-14 16:58:00,75.2,64.4,30.02,SE,135,0.8,0.8,69,0.00,,,0.00,WUHU216HW,2013-08-14 20:58:00,
2013-08-14 17:03:00,74.9,64.1,30.02,SE,135,0.0,2.2,69,0.00,,,0.00,WUHU216HW,2013-08-14 21:03:00,
2013-08-14 17:08:00,74.9,64.1,30.02,ESE,113,0.4,2.2,69,0.00,,,0.00,WUHU216HW,2013-08-14 21:08:00,
2013-08-14 17:13:00,74.5,64.2,30.02,SW,225,1.4,1.4,70,0.00,,,0.00,WUHU216HW,2013-08-14 21:13:00,
2013-08-14 17:18:00,75.1,64.6,30.02,South,180,0.0,1.4,70,0.00,,,0.00,WUHU216HW,2013-08-14 21:18:00,
2013-08-14 17:23:00,75.2,63.9,30.02,SSE,158,0.8,1.4,68,0.00,,,0.00,WUHU216HW,2013-08-14 21:23:00,
2013-08-14 17:28:00,75.1,63.8,30.02,ENE,68,0.0,1.4,68,0.00,,,0.00,WUHU216HW,2013-08-14 21:28:00,
2013-08-14 17:33:00,74.7,63.5,30.02,ENE,68,0.8,0.8,68,0.00,,,0.00,WUHU216HW,2013-08-14 21:33:00,
2013-08-14 17:38:00,74.5,63.3,30.02,ENE,68,0.8,0.8,68,0.00,,,0.00,WUHU216HW,2013-08-14 21:38:00,
2013-08-14 17:43:00,74.3,63.5,30.02,ENE,68,0.0,0.8,69,0.00,,,0.00,WUHU216HW,2013-08-14 21:43:00,
2013-08-14 17:48:00,74.9,63.6,30.02,SE,135,0.4,0.8,68,0.00,,,0.00,WUHU216HW,2013-08-14 21:48:00,
2013-08-14 17:53:00,75.2,63.9,30.02,SE,135,0.8,0.8,68,0.00,,,0.00,WUHU216HW,2013-08-14 21:53:00,
2013-08-14 17:58:00,74.9,63.6,30.02,SSE,158,0.0,0.8,68,0.00,,,0.00,WUHU216HW,2013-08-14 21:58:00,
2013-08-14 18:03:00,74.3,63.1,30.02,SSE,158,0.0,0.8,68,0.00,,,0.00,WUHU216HW,2013-08-14 22:03:00,
2013-08-14 18:08:00,74.0,63.2,30.02,SSE,158,0.0,0.4,69,0.00,,,0.00,WUHU216HW,2013-08-14 22:08:00,
2013-08-14 18:13:00,73.8,63.6,30.02,SSE,158,0.0,0.4,70,0.00,,,0.00,WUHU216HW,2013-08-14 22:13:00,
2013-08-14 18:18:00,74.0,63.6,30.03,SSE,158,0.0,0.0,70,0.00,,,0.00,WUHU216HW,2013-08-14 22:18:00,
2013-08-14 18:23:00,74.3,64.0,30.03,SSE,158,0.0,0.0,70,0.00,,,0.00,WUHU216HW,2013-08-14 22:23:00,
2013-08-14 18:28:00,74.2,63.4,30.02,SE,135,0.0,1.4,69,0.00,,,0.00,WUHU216HW,2013-08-14 22:28:00,
2013-08-14 18:33:00,73.8,63.1,30.03,SE,135,0.0,1.4,69,0.00,,,0.00,WUHU216HW,2013-08-14 22:33:00,
2013-08-14 18:38:00,73.4,63.2,30.03,SSE,158,0.0,0.4,70,0.00,,,0.00,WUHU216HW,2013-08-14 22:38:00,
2013-08-14 18:43:00,73.8,63.6,30.03,South,180,0.0,0.8,70,0.00,,,0.00,WUHU216HW,2013-08-14 22:43:00,
2013-08-14 18:48:00,74.0,63.6,30.03,South,180,0.4,0.8,70,0.00,,,0.00,WUHU216HW,2013-08-14 22:48:00,
2013-08-14 18:53:00,73.8,63.6,30.04,South,180,0.0,0.4,70,0.00,,,0.00,WUHU216HW,2013-08-14 22:53:00,
2013-08-14 18:58:00,73.4,63.2,30.03,South,180,0.0,0.0,70,0.00,,,0.00,WUHU216HW,2013-08-14 22:58:00,
2013-08-14 19:04:00,73.1,62.8,30.03,South,180,0.0,0.0,70,0.00,,,0.00,WUHU216HW,2013-08-14 23:04:00,
2013-08-14 19:09:00,73.1,63.2,30.03,South,180,0.0,0.0,71,0.00,,,0.00,WUHU216HW,2013-08-14 23:09:00,
2013-08-14 19:14:00,73.4,63.2,30.03,SSE,158,0.0,0.0,70,0.00,,,0.00,WUHU216HW,2013-08-14 23:14:00,
2013-08-14 19:19:00,73.1,62.8,30.04,SSE,158,0.0,0.0,70,0.00,,,0.00,WUHU216HW,2013-08-14 23:19:00,
2013-08-14 19:24:00,72.5,62.3,30.04,SSE,158,0.0,0.0,70,0.00,,,0.00,WUHU216HW,2013-08-14 23:24:00,
2013-08-14 19:29:00,72.2,62.3,30.04,SSE,158,0.0,0.0,71,0.00,,,0.00,WUHU216HW,2013-08-14 23:29:00,
2013-08-14 19:34:00,72.4,62.5,30.05,SSE,158,0.0,0.0,71,0.00,,,0.00,WUHU216HW,2013-08-14 23:34:00,
2013-08-14 19:39:00,72.4,62.5,30.04,SSE,158,0.0,0.0,71,0.00,,,0.00,WUHU216HW,2013-08-14 23:39:00,
2013-08-14 19:44:00,72.4,62.5,30.05,SSE,158,0.0,0.4,71,0.00,,,0.00,WUHU216HW,2013-08-14 23:44:00,
2013-08-14 19:49:00,72.0,62.1,30.05,South,180,0.0,0.4,71,0.00,,,0.00,WUHU216HW,2013-08-14 23:49:00,
2013-08-14 19:55:00,71.6,61.4,30.05,South,180,0.0,0.4,70,0.00,,,0.00,WUHU216HW,2013-08-14 23:55:00,
2013-08-14 20:00:00,71.6,61.4,30.05,SSE,158,0.0,0.8,70,0.00,,,0.00,WUHU216HW,2013-08-15 00:00:00,
2013-08-14 20:05:00,72.0,62.1,30.05,SSE,158,0.0,0.8,71,0.00,,,0.00,WUHU216HW,2013-08-15 00:05:00,
2013-08-14 20:10:00,71.8,61.6,30.06,South,180,0.4,0.8,70,0.00,,,0.00,WUHU216HW,2013-08-15 00:10:00,
2013-08-14 20:15:00,71.3,60.6,30.06,WSW,248,0.0,0.8,69,0.00,,,0.00,WUHU216HW,2013-08-15 00:15:00,
2013-08-14 20:20:00,70.9,60.7,30.06,SW,225,0.0,1.8,70,0.00,,,0.00,WUHU216HW,2013-08-15 00:20:00,
2013-08-14 20:25:00,70.9,60.2,30.06,South,180,0.0,1.8,69,0.00,,,0.00,WUHU216HW,2013-08-15 00:25:00,
2013-08-14 20:30:00,71.3,60.6,30.06,SSE,158,0.0,0.8,69,0.00,,,0.00,WUHU216HW,2013-08-15 00:30:00,
2013-08-14 20:35:00,71.3,60.6,30.06,SSE,158,0.0,0.8,69,0.00,,,0.00,WUHU216HW,2013-08-15 00:35:00,
2013-08-14 20:40:00,70.7,60.0,30.06,SW,225,0.0,0.8,69,0.00,,,0.00,WUHU216HW,2013-08-15 00:40:00,
2013-08-14 20:45:00,70.2,59.5,30.07,SW,225,0.0,0.8,69,0.00,,,0.00,WUHU216HW,2013-08-15 00:45:00,
2013-08-14 20:50:00,70.4,59.3,30.07,SW,225,0.0,0.0,68,0.00,,,0.00,WUHU216HW,2013-08-15 00:50:00,
2013-08-14 20:55:00,70.7,59.7,30.07,SW,225,0.0,0.8,68,0.00,,,0.00,WUHU216HW,2013-08-15 00:55:00,
2013-08-14 21:00:00,70.6,59.5,30.07,SW,225,0.0,0.8,68,0.00,,,0.00,WUHU216HW,2013-08-15 01:00:00,
2013-08-14 21:05:00,70.2,59.1,30.08,SW,225,0.0,0.8,68,0.00,,,0.00,WUHU216HW,2013-08-15 01:05:00,
2013-08-14 21:10:00,69.7,59.1,30.09,SSW,203,0.0,0.8,69,0.00,,,0.00,WUHU216HW,2013-08-15 01:10:00,
2013-08-14 21:15:00,69.8,59.1,30.09,SSW,203,0.0,0.0,69,0.00,,,0.00,WUHU216HW,2013-08-15 01:15:00,
2013-08-14 21:20:00,69.8,59.1,30.10,SSW,203,0.0,0.0,69,0.00,,,0.00,WUHU216HW,2013-08-15 01:20:00,
2013-08-14 21:25:00,69.7,59.1,30.09,SSW,203,0.0,0.4,69,0.00,,,0.00,WUHU216HW,2013-08-15 01:25:00,
2013-08-14 21:30:00,69.3,58.7,30.09,SSW,203,0.0,0.4,69,0.00,,,0.00,WUHU216HW,2013-08-15 01:30:00,
2013-08-14 21:35:00,68.9,58.8,30.09,SSW,203,0.0,0.0,70,0.00,,,0.00,WUHU216HW,2013-08-15 01:35:00,
2013-08-14 21:40:00,68.8,58.6,30.10,SSW,203,0.0,0.0,70,0.00,,,0.00,WUHU216HW,2013-08-15 01:40:00,
2013-08-14 21:45:00,69.5,59.2,30.10,SSW,203,0.0,0.0,70,0.00,,,0.00,WUHU216HW,2013-08-15 01:45:00,
2013-08-14 21:50:00,69.5,58.9,30.09,SSW,203,0.0,0.0,69,0.00,,,0.00,WUHU216HW,2013-08-15 01:50:00,
2013-08-14 21:55:00,68.9,58.3,30.10,SSW,203,0.0,0.0,69,0.00,,,0.00,WUHU216HW,2013-08-15 01:55:00,
2013-08-14 22:00:00,68.6,58.4,30.10,SSW,203,0.0,0.0,70,0.00,,,0.00,WUHU216HW,2013-08-15 02:00:00,
2013-08-14 22:05:00,68.2,58.2,30.10,SSW,203,0.8,0.8,70,0.00,,,0.00,WUHU216HW,2013-08-15 02:05:00,
2013-08-14 22:10:00,68.0,58.7,30.10,SSW,203,0.0,0.8,72,0.00,,,0.00,WUHU216HW,2013-08-15 02:10:00,
2013-08-14 22:15:00,68.6,58.9,30.10,SSW,203,0.0,0.8,71,0.00,,,0.00,WUHU216HW,2013-08-15 02:15:00,
2013-08-14 22:20:00,68.6,58.4,30.10,SSW,203,0.0,0.8,70,0.00,,,0.00,WUHU216HW,2013-08-15 02:20:00,
2013-08-14 22:25:00,68.2,58.2,30.11,SSW,203,0.0,0.0,70,0.00,,,0.00,WUHU216HW,2013-08-15 02:25:00,
2013-08-14 22:30:00,67.9,57.8,30.10,SSW,203,0.0,0.0,70,0.00,,,0.00,WUHU216HW,2013-08-15 02:30:00,
2013-08-14 22:35:00,67.3,57.6,30.10,SSW,203,0.0,0.0,71,0.00,,,0.00,WUHU216HW,2013-08-15 02:35:00,
2013-08-14 22:40:00,67.7,58.3,30.10,SSW,203,0.0,0.0,72,0.00,,,0.00,WUHU216HW,2013-08-15 02:40:00,
2013-08-14 22:45:00,67.9,58.1,30.10,SSW,203,0.0,0.0,71,0.00,,,0.00,WUHU216HW,2013-08-15 02:45:00,
2013-08-14 22:50:00,67.7,58.0,30.10,SSW,203,0.0,0.0,71,0.00,,,0.00,WUHU216HW,2013-08-15 02:50:00,
2013-08-14 22:55:00,67.3,57.6,30.10,SSW,203,0.0,0.0,71,0.00,,,0.00,WUHU216HW,2013-08-15 02:55:00,
2013-08-14 23:00:00,67.0,57.2,30.10,SSW,203,0.0,0.0,71,0.00,,,0.00,WUHU216HW,2013-08-15 03:00:00,
2013-08-14 23:05:00,67.0,57.2,30.11,SSW,203,0.0,0.0,71,0.00,,,0.00,WUHU216HW,2013-08-15 03:05:00,
2013-08-14 23:10:00,67.5,57.4,30.11,SSW,203,0.0,0.4,70,0.00,,,0.00,WUHU216HW,2013-08-15 03:10:00,
2013-08-14 23:15:00,67.7,57.6,30.11,SSW,203,0.0,0.4,70,0.00,,,0.00,WUHU216HW,2013-08-15 03:15:00,
2013-08-14 23:20:00,67.3,57.2,30.11,SSW,203,0.0,0.0,70,0.00,,,0.00,WUHU216HW,2013-08-15 03:20:00,
2013-08-14 23:25:00,67.0,56.9,30.10,SSE,158,0.0,0.0,70,0.00,,,0.00,WUHU216HW,2013-08-15 03:25:00,
2013-08-14 23:30:00,66.6,56.5,30.11,SSE,158,0.0,0.4,70,0.00,,,0.00,WUHU216HW,2013-08-15 03:30:00,
2013-08-14 23:35:00,66.4,56.3,30.11,SSE,158,0.0,0.4,70,0.00,,,0.00,WUHU216HW,2013-08-15 03:35:00,
2013-08-14 23:40:00,66.2,56.2,30.11,SSE,158,0.0,0.0,70,0.00,,,0.00,WUHU216HW,2013-08-15 03:40:00,
2013-08-14 23:45:00,66.4,56.3,30.11,SSE,158,0.0,0.0,70,0.00,,,0.00,WUHU216HW,2013-08-15 03:45:00,
2013-08-14 23:50:00,67.0,56.9,30.11,SSE,158,0.0,0.0,70,0.00,,,0.00,WUHU216HW,2013-08-15 03:50:00,
2013-08-14 23:55:00,66.8,56.3,30.11,SSE,158,0.0,0.0,69,0.00,,,0.00,WUHU216HW,2013-08-15 03:55:00,